Regional Weather Roundup
Issued by NWS

Home | Current Version | Previous Version | Graphics & Text | Print | Product List | Glossary On
Versions: 1 2 3 4 5 6 7 8 9 10 11 12 13 14 15 16 17 18 19 20 21 22 23 24 25 26 27 28 29 30 31 32 33 34 35 36 37 38 39 40 41 42 43 44 45 46 47 48 49 50
000
ASUS43 KDMX 220006
RWRIA

WEATHER ROUNDUP FOR IOWA
NATIONAL WEATHER SERVICE DES MOINES IA
700 PM CDT FRI JUL 21 2017

NOTE: "FAIR" INDICATES FEW OR NO CLOUDS BELOW 12,000 FEET WITH NO
SIGNIFICANT WEATHER AND/OR OBSTRUCTIONS TO VISIBILITY.

* - THESE STATIONS ARE NOT NWS STATIONS...THUS NOT UNDER NWS
QUALITY CONTROL.  THEY ALSO DO NOT REPORT WEATHER SUCH
AS PRECIPITATION OR FOG.

IAZ001>003-012>014-020>022-031>034-043>046-220100-
   NORTHWEST IOWA

CITY           SKY/WX    TMP DP  RH WIND       PRES   REMARKS
CARROLL *      PTSUNNY   86  82  89 E8        29.75F HX 105
CHEROKEE *     MOSUNNY   82  76  83 E8        29.77F HX  89
DENISON *      CLOUDY    91  79  66 S7        29.75F HX 107
ORANGE CITY *  SUNNY     84  77  79 E5        29.78F HX  94
SHELDON *      SUNNY     82  75  78 SE8       29.77F HX  89
SIOUX CITY     SUNNY     91  80  70 E8        29.72F HX 109
6HR MIN TEMP:  82; 6HR MAX TEMP:  91;

SPENCER        MOSUNNY   81  73  76 E8        29.79F HX  86
6HR MIN TEMP:  75; 6HR MAX TEMP:  82; 6HR PCP:  0.01;

STORM LAKE *   CLOUDY    77  75  94 E12       29.79F
$$

IAZ055>058-069>071-079>083-090>094-220100-
   SOUTHWEST IOWA

CITY           SKY/WX    TMP DP  RH WIND       PRES   REMARKS
ATLANTIC *     MOSUNNY   93  79  62 S8G14     29.74F HX 110
AUDUBON *      SUNNY     91  81  70 S7        29.77F HX 110
CLARINDA *     SUNNY     91  81  70 S9        29.78S HX 110
COUNCIL BLFS * SUNNY     95  77  55 S8        29.73F HX 109
CRESTON *      SUNNY     91  77  62 S15       29.80F HX 105
HARLAN  *      CLOUDY    93  82  70 S7        29.77F HX 117
LAMONI         SUNNY     92  77  61 S9G20     29.81F HX 105
6HR MIN TEMP:  91; 6HR MAX TEMP:  94;

RED OAK *      SUNNY     93  81  66 S10       29.74F HX 113
SHENANDOAH *   SUNNY     93  81  66 S12       29.74F HX 113
$$

IAZ047>049-059>061-072>074-084-220100-
   CENTRAL IOWA

CITY           SKY/WX    TMP DP  RH WIND       PRES   REMARKS
AMES           MOSUNNY   80  78  94 E7        29.77F HX  88
6HR MIN TEMP:  79; 6HR MAX TEMP:  85; 6HR PCP:  0.02;

ANKENY *       CLOUDY    84  82  94 SE5       29.77F HX 101
BOONE *        CLOUDY    81  79  94 SE9       29.77F HX  89
CHARITON *     SUNNY     95  73  49 S16G25    29.80F HX 105
DES MOINES     CLOUDY    96  73  47 S15       29.76S HX 105
6HR MIN TEMP:  95; 6HR MAX TEMP: 101;

GRINNELL*      CLOUDY    81  77  87 NE5       29.81R HX  89
MARSHALLTOWN   LGT RAIN  79  76  90 E13       29.76F HX  83
6HR MIN TEMP:  76; 6HR MAX TEMP:  84; 6HR PCP:  0.01;

NEWTON *       CLOUDY    86  82  89 NE8       29.79R HX 105
PELLA *        CLOUDY    92  74  55 S5        29.80S HX 101
$$

IAZ004>006-015-016-023>025-035-036-220100-
   NORTH CENTRAL IOWA

CITY           SKY/WX    TMP DP  RH WIND       PRES   REMARKS
ALGONA *       CLOUDY    77  75  94 SE7       29.80F
CLARION *      CLOUDY    75  75 100 E9        29.80S
ESTHERVILLE    MOSUNNY   77  73  87 S9        29.80F
6HR MIN TEMP:  73; 6HR MAX TEMP:  78;

FORT DODGE *   CLOUDY    79  73  83 E7        29.80S HX  82
MASON CITY     CLOUDY    74  70  87 SE9       29.82F
6HR MIN TEMP:  70; 6HR MAX TEMP:  74; 6HR PCP:  0.12;

FOREST CITY *    N/A     75  70  83 SE8       29.81F
WEBSTER CITY * PTSUNNY   79  75  89 SE7       29.76F HX  82
IOWA FALLS *     N/A     76  73  92 E6        29.79F
$$

IAZ007>011-017>019-026>030-037>042-050>054-066-220100-
   NORTHEAST IOWA

CITY           SKY/WX    TMP DP  RH WIND       PRES   REMARKS
CEDAR RAPIDS   CLOUDY    74  73  97 SE9       29.80R
6HR MIN TEMP:  73; 6HR MAX TEMP:  88; 6HR PCP:  0.04;

CHARLES CITY * PTSUNNY   72  72 100 E9        29.82F
CLINTON *      LGT RAIN  83  78  85 VRB6      29.82F HX  93
DECORAH *      CLOUDY    72  68  88 SE9G17    29.84F
DUBUQUE        CLOUDY    72  70  93 S15       29.82F THUNDER
6HR MIN TEMP:  72; 6HR MAX TEMP:  78; 6HR PCP:  0.07;

MONTICELLO *   CLOUDY    73  72  94 S3        29.80F
OELWEIN *      PTSUNNY   72  72 100 E7        29.85R
WATERLOO       CLOUDY    74  69  85 E16       29.80F
6HR MIN TEMP:  73; 6HR MAX TEMP:  77; 6HR PCP: TRACE;

$$

IAZ064-065-067-068-078-220100-
   EAST CENTRAL IOWA

CITY           SKY/WX    TMP DP  RH WIND       PRES   REMARKS
DAVENPORT      TSTM      84  76  76 SW9       29.83F HX  93
6HR MIN TEMP:  84; 6HR MAX TEMP:  91; 6HR PCP: TRACE;

IOWA CITY      CLOUDY    77  72  84 SE13      29.81S
6HR MIN TEMP:  73; 6HR MAX TEMP:  93; 6HR PCP:  1.88;

MT. PLEASANT * CLOUDY    92  69  47 SW14      29.81F HX  96
MUSCATINE *      N/A     79  70  73 VRB5G40   29.82S HX  81
QUAD CITIES    CLOUDY    86  78  77 S3        29.81S HX  98
6HR MIN TEMP:  86; 6HR MAX TEMP:  93;

$$

IAZ062-063-075>077-085>089-095>099-220100-
   SOUTHEAST IOWA

CITY           SKY/WX    TMP DP  RH WIND       PRES   REMARKS
BURLINGTON     SUNNY     91  76  61 S10       29.83S HX 103
6HR MIN TEMP:  91; 6HR MAX TEMP:  94;

FAIRFIELD *    SUNNY     93  73  52 S10G17    29.80F HX 102
FORT MADISON * SUNNY     93  75  55 S9        29.84F HX 104
KEOKUK *       SUNNY     95  73  49 S9G15     29.84R HX 105
OSKALOOSA *      N/A     91  74  58 SW9       29.80F HX 100
CENTERVILLE *    N/A     91  77  62 S14       29.85S HX 105
OTTUMWA        SUNNY     93  74  53 S10G18    29.80S HX 103
6HR MIN TEMP:  93; 6HR MAX TEMP:  98;

WASHINGTON *   CLOUDY    84  75  74 CALM      29.82F HX  92
$$

ABBREVIATIONS USED IN REMARKS
   TC - TEMPERATURES IN CELSIUS
  WCI - WIND CHILL INDEX
   HX - HEAT INDEX
  VSB - VISIBILITY
$$





USA.gov is the U.S. government's official web portal to all federal, state and local government web resources and services.